La Grande, OR

2:54 PM PDT on October 18, 2019 (GMT -0700)
La Grande-Union County

Weather History for KLGD - August, 2019

Change the Weather History Date:

Friday, August 30, 2019

  Actual Average Record
Temperature  
Mean Temperature 75 °F -  
Max Temperature 90 °F 78 °F 98 °F (1967)
Min Temperature 61 °F 45 °F 41 °F (1980)
Cooling Degree Days 10    
Growing Degree Days 25 (Base 50)    
Moisture  
Dew Point 55 °F    
Average Humidity 51    
Maximum Humidity 75    
Minimum Humidity 30    
Precipitation  
Precipitation 0.00 in - - ()
Sea Level Pressure  
Sea Level Pressure 30.43 in    
Wind  
Wind Speed 5 mph (NW)    
Max Wind Speed 12 mph    
Max Gust Speed -    
Visibility 10 miles    
Events      
Averages and records for this station are not official NWS values.
T = Trace of Precipitation, MM = Missing Value Source: NWS Daily Summary

Daily Weather History Graph

Daily Weather History Graph

Search for Another Location

Airport or City:

Astronomy

Aug. 30, 2019 Rise Set
Actual Time 6:11 AM PDT 7:33 PM PDT
Civil Twilight 5:40 AM PDT 8:03 PM PDT
Nautical Twilight 5:03 AM PDT 8:40 PM PDT
Astronomical Twilight 4:23 AM PDT 9:20 PM PDT
Moon 6:15 AM PDT (8/30) 8:12 PM PDT (8/30)
Length of Visible Light 14h 23m
Length of Day
13h 22m
New Moon, 0% of the Moon is Illuminated
Aug 30
New Moon
Sep 5
First Quarter
Sep 13
Full
Sep 21
Last Quarter
Sep 28
New

Hourly Weather History & Observations

Time (PDT) Temp. Heat Index Dew Point Humidity Pressure Visibility Wind Dir Wind Speed Gust Speed Precip Events Conditions
12:56 AM 64.0 °F - 54.0 °F 70% 30.42 in 10.0 mi Calm Calm - N/A   Clear
1:56 AM 68.0 °F - 54.0 °F 61% 30.42 in 10.0 mi Calm Calm - N/A   Clear
2:56 AM 68.0 °F - 53.1 °F 59% 30.42 in 10.0 mi WNW 9.2 mph - N/A   Clear
3:56 AM 64.9 °F - 54.0 °F 68% 30.43 in 10.0 mi WNW 4.6 mph - N/A   Clear
4:56 AM 68.0 °F - 54.0 °F 61% 30.43 in 10.0 mi West 9.2 mph - N/A   Clear
5:56 AM 61.0 °F - 53.1 °F 75% 30.44 in 10.0 mi NW 5.8 mph - N/A   Clear
6:56 AM 61.0 °F - 53.1 °F 75% 30.45 in 10.0 mi NNW 6.9 mph - N/A   Clear
7:56 AM 70.0 °F - 55.0 °F 59% 30.48 in 10.0 mi NW 8.1 mph - N/A   Clear
8:56 AM 73.9 °F - 55.9 °F 53% 30.48 in 10.0 mi NW 11.5 mph - N/A   Clear
9:56 AM 75.9 °F - 57.0 °F 52% 30.48 in 10.0 mi NNW 8.1 mph - N/A   Clear
10:56 AM 80.1 °F 80.4 °F 57.0 °F 45% 30.47 in 10.0 mi Variable 6.9 mph - N/A   Clear
11:56 AM 82.0 °F 81.6 °F 55.9 °F 41% 30.45 in 8.0 mi NNW 5.8 mph - N/A   Clear
12:56 PM 84.0 °F 83.0 °F 55.9 °F 38% 30.44 in 10.0 mi NNW 5.8 mph - N/A   Clear
1:56 PM 86.0 °F 84.2 °F 54.0 °F 33% 30.42 in 10.0 mi Calm Calm - N/A   Clear
2:56 PM 87.1 °F 85.1 °F 54.0 °F 32% 30.40 in 10.0 mi Calm Calm - N/A   Clear
3:56 PM 89.1 °F 86.9 °F 54.0 °F 30% 30.39 in 10.0 mi NNE 6.9 mph - N/A   Clear
4:56 PM 88.0 °F 85.9 °F 54.0 °F 31% 30.38 in 10.0 mi North 5.8 mph - N/A   Clear
5:56 PM 87.1 °F 85.3 °F 55.0 °F 33% 30.38 in 10.0 mi North 6.9 mph - N/A   Clear
6:56 PM 82.0 °F 81.6 °F 55.9 °F 41% 30.39 in 10.0 mi NNW 8.1 mph - N/A   Clear
7:56 PM 75.9 °F - 55.0 °F 48% 30.41 in 10.0 mi NW 6.9 mph - N/A   Clear
8:56 PM 71.1 °F - 54.0 °F 55% 30.43 in 10.0 mi NNE 5.8 mph - N/A   Clear
9:56 PM 75.0 °F - 54.0 °F 48% 30.43 in 10.0 mi NW 9.2 mph - N/A   Clear
10:56 PM 70.0 °F - 54.0 °F 57% 30.43 in 10.0 mi West 6.9 mph - N/A   Clear
11:56 PM 68.0 °F - 54.0 °F 61% 30.43 in 10.0 mi NW 6.9 mph - N/A   Clear